COSMOS 2461 (GLONASS)

Satellite information

Favourite Embed

Satellite Type and Status

PAYLOADIN ORBIT

Key statistics

Satellite COSMOS 2461 (GLONASS) at a glance.

Uptime

5720

Days in orbit

Revolutions

≈ 2.1

Per day

Orbit

MEO

Medium Earth Orbit

Inclination

65.6

Latest

Satellite identification and parameters

Extended collection of information and parameters for COSMOS 2461 (GLONASS).

Object identification

Identified? True

Debris? False

Object name: COSMOS 2461 (GLONASS)

International designator: 2010-007B

Object number (NORAD): 36401

Object ID (CCSDS): 36401

Country: COMMONWEALTH OF INDEPENDENT STATES (CIS)

Current information (Y/N): Y

RCS size: LARGE

Orbital parameters

Period: 675.717 minutes

Inclination: 65.5696 deg

SMA: 25507.619 km

Apoapsis: 19180.218 km

Periapsis: 19078.75 km

RAAN: 322.4744 deg

Eccentricy: 0.00198898

Argument of periapsis: 355.0867 deg

Mean anomaly: 16.5241 deg

Mean motion: 2.1310708 rev/day

Mean motion (dot): -0.00000032 rev/day2

B* drag term: 0.0 1/REarth

Two-line elements (TLE)

Creation date: Oct. 26, 2025, 10:54 a.m.

Reference frame: TEME

Reference center: EARTH

Epoch: Oct. 25, 2025, 11:27 a.m. UTC

TLE line 0: 0 COSMOS 2461 (GLONASS)

TLE line 1: 1 36401U 10007B 25298.47773612 -.00000032 00000-0 00000-0 0 9991

TLE line 2: 2 36401 65.5696 322.4744 0019890 355.0867 16.5241 2.13107080121825

Live tracking on map

Real-time ground track for satellite COSMOS 2461 (GLONASS).

In-orbit conjunctions

There are no conjunctions computed for COSMOS 2461 (GLONASS), at the moment. Check back to stay up to date, as we update our databases every day.

Go to all conjunctions

Associated space launch

Glonass-M, also known as Uragan-M, are the second generation of Uragan satellite design used for GLONASS satellite navigation system. GLONASS is a Russian space-based navigation system comparable to the similar GPS and Galileo systems. This generation improves on accuracy, power consumption and design life. Each satellite weighs 1415 kg, is equipped with 12 L-band antennas, and has an operational lifetime of 7 years.

COSMOS 2461 (GLONASS) was lifted into orbit during the mission ‘Proton-M/DM-2 Enhanced | 3 x Glonass-M (Kosmos 2459, Kosmos 2460, Kosmos 2461)’, on board a Proton-M space rocket.

The launch took place on March 1, 2010, 9:19 p.m. from 81/24 (81P).

For more information about the launch, click the button.

Launch to space Proton-M/DM-2 Enhanced | 3 x Glonass-M (Kosmos 2459, Kosmos 2460, Kosmos 2461)
Proton-M/DM-2 Enhanced | 3 x Glonass-M (Kosmos 2459, Kosmos 2460, Kosmos 2461)

Agency: N/A

Status: Launch Successful

Launch date: March 1, 2010, 9:19 p.m. UTC

Rocket: Proton-M

Launch pad: 81/24 (81P)

Location: Baikonur Cosmodrome, Republic of Kazakhstan

...

Latest news about this satellite

There are no fresh news available about this satellite. Check back as we update our databases every day.


Newsletter sign-up

Weekly statistics, charts and insights to help you stay on top of the space industry.